Mountain Home, Arkansas, United States (72653)
Lat: 36.34N, Lon: 92.39W
Wx Zone: ARZ005
Local Info
Past Weather Observations for Friday, May 27, 2016

NOTE: This archive is for the closest National Weather Service station to Mountain Home. Information may differ from the station used for current weather conditions.

Click here for Long-term Archive

Time Weather Temperature Dewpoint Humidity Pressure Winds Precip Visibility
23:53
Overcast
70°F / 21°C 66°F / 19°C 88% 29.89 in
(1012 mb)
ESE 10.4 mph
(ESE 17 kph)
- 9SM
23:08
Overcast
70°F / 21°C 68°F / 20°C 94% 29.89 in
(1012 mb)
E 10.4 mph
(E 17 kph)
- 8SM
22:53
Mostly Cloudy
70°F / 21°C 68°F / 20°C 94% 29.89 in
(1012 mb)
ESE 8.1 mph
(ESE 13 kph)
- 8SM
21:53
Partly Cloudy
70°F / 21°C 66°F / 19°C 88% 29.89 in
(1012 mb)
SE 4.6 mph
(SE 7 kph)
- 8SM
20:53
Clear
70°F / 21°C 66°F / 19°C 88% 29.89 in
(1012 mb)
SSE 5.8 mph
(SSE 9 kph)
- 9SM
19:53
Partly Cloudy
70°F / 21°C 64°F / 18°C 83% 29.86 in
(1011 mb)
SE 9.2 mph
(SE 15 kph)
0.00 in
(0.00 mm)
10SM
18:53
Partly Cloudy
Light Rain
75°F / 24°C 70°F / 21°C 83% 29.89 in
(1012 mb)
SSE 8.1 mph
(SSE 13 kph)
0.00 in
(0.00 mm)
7SM
18:18
Partly Cloudy
73°F / 23°C 70°F / 21°C 89% 29.89 in
(1012 mb)
S 8.1 mph
(S 13 kph)
- 8SM
17:53
Mostly Cloudy
73°F / 23°C 66°F / 19°C 78% 29.89 in
(1012 mb)
SW 5.8 mph
(SW 9 kph)
0.03 in
(0.76 mm)
8SM
17:51
Mostly Cloudy
73°F / 23°C 68°F / 20°C 83% 29.89 in
(1012 mb)
SSE 8.1 mph
(SSE 13 kph)
0.03 in
(0.76 mm)
8SM
16:53
Mostly Cloudy
77°F / 25°C 70°F / 21°C 79% 29.89 in
(1012 mb)
S 8.1 mph
(S 13 kph)
- 7SM
15:53
Mostly Cloudy
79°F / 26°C 70°F / 21°C 74% 29.89 in
(1012 mb)
S 8.1 mph
(S 13 kph)
- 8SM
14:53
Partly Cloudy
82°F / 28°C 70°F / 21°C 66% 29.92 in
(1013 mb)
S 11.5 mph
(S 19 kph)
- 8SM
13:53
Partly Cloudy
84°F / 29°C 72°F / 22°C 66% 29.92 in
(1013 mb)
S 13.8 mph
(S 22 kph)
- 8SM
12:53
Partly Cloudy
84°F / 29°C 72°F / 22°C 66% 29.92 in
(1013 mb)
S 9.2 mph
(S 15 kph)
- 7SM
11:53
Partly Cloudy
84°F / 29°C 73°F / 23°C 70% 29.95 in
(1014 mb)
SSE 10.4 mph
(SSE 17 kph)
- 7SM
10:53
Mostly Cloudy
84°F / 29°C 73°F / 23°C 70% 29.98 in
(1015 mb)
S 12.7 mph
(S 20 kph)
- 7SM
10:50
Overcast
82°F / 28°C 73°F / 23°C 74% 29.98 in
(1015 mb)
S 6.9 mph
(S 11 kph)
- 7SM
10:42
Mostly Cloudy
81°F / 27°C 72°F / 22°C 74% 29.98 in
(1015 mb)
S 5.8 mph
(S 9 kph)
- 7SM
10:12
Mostly Cloudy
82°F / 28°C 73°F / 23°C 74% 29.98 in
(1015 mb)
S 10.4 mph
(S 17 kph)
- 7SM
09:53
Partly Cloudy
82°F / 28°C 73°F / 23°C 74% 29.98 in
(1015 mb)
S 9.2 mph
(S 15 kph)
- 7SM
08:53
Clear
81°F / 27°C 73°F / 23°C 79% 29.98 in
(1015 mb)
SSE 8.1 mph
(SSE 13 kph)
- 7SM
07:53
Overcast
Fog And Mist
75°F / 24°C 73°F / 23°C 94% 30.01 in
(1016 mb)
SE 4.6 mph
(SE 7 kph)
- 6SM
06:53
Overcast
Fog And Mist
73°F / 23°C 72°F / 22°C 94% 29.98 in
(1015 mb)
SE 5.8 mph
(SE 9 kph)
- 5SM
06:24
Mostly Cloudy
Fog And Mist
73°F / 23°C 72°F / 22°C 94% 29.98 in
(1015 mb)
SE 3.5 mph
(SE 6 kph)
- 5SM
05:53
Clear
Fog And Mist
72°F / 22°C 72°F / 22°C 100% 29.95 in
(1014 mb)
S 3.5 mph
(S 6 kph)
- 4SM
04:53
Partly Cloudy
Fog And Mist
70°F / 21°C 70°F / 21°C 100% 29.95 in
(1014 mb)
S 4.6 mph
(S 7 kph)
- 4SM
03:53
Clear
Fog And Mist
72°F / 22°C 70°F / 21°C 94% 29.95 in
(1014 mb)
SE 4.6 mph
(SE 7 kph)
- 5SM
02:53
Clear
Fog And Mist
70°F / 21°C 70°F / 21°C 100% 29.95 in
(1014 mb)
SE 3.5 mph
(SE 6 kph)
- 5SM
01:53
Mostly Cloudy
Fog And Mist
70°F / 21°C 70°F / 21°C 100% 29.98 in
(1015 mb)
SE 4.6 mph
(SE 7 kph)
- 6SM
01:34
Mostly Cloudy
Fog And Mist
72°F / 22°C 70°F / 21°C 94% 29.98 in
(1015 mb)
SE 5.8 mph
(SE 9 kph)
- 6SM
01:25
Mostly Cloudy
72°F / 22°C 70°F / 21°C 94% 29.98 in
(1015 mb)
SE 8.1 mph
(SE 13 kph)
- 7SM
00:53
Overcast
72°F / 22°C 70°F / 21°C 94% 29.98 in
(1015 mb)
SE 6.9 mph
(SE 11 kph)
- 7SM
00:23
Overcast
70°F / 21°C 68°F / 20°C 94% 30.01 in
(1016 mb)
SE 4.6 mph
(SE 7 kph)
- 8SM
00:15
Overcast
70°F / 21°C 68°F / 20°C 94% 30.01 in
(1016 mb)
ESE 5.8 mph
(ESE 9 kph)
- 8SM
Time Weather Temperature Dewpoint Humidity Pressure Winds Precip Visibility


Weather for websites

WeatherForYou.com, LLC is not responsible for any damages or problems caused by this service. Current weather conditions are obtained from the closest station including government and personal stations which may have varying degrees of accuracy. Weather forecasts are derived from the NOAA NDFD. Like all things, this site belongs to Jesus Christ... He just trusts us to maintain it. If you have any questions or comments email webmaster@weatherforyou.com

Copyright © 2016, WeatherForYou.com LLC. All rights reserved.